FW5365 Weather Reports


Display with metric or nautical units.
time (UTC)temp
F
wind
direction
speed
MPH
gust
MPH
rain 1hr
in
rain 24hr
in
rain mn
in
humidity
%
barometer
mb
20260507003101 69 250 2.0 5.0 0.00 0.00 0.00 65 1017.9
20260507001621 68 316 3.0 6.0 0.00 0.00 0.00 66 1017.8
20260507000101 68 290 3.0 7.0 0.00 0.00 0.00 65 1017.9
20260506234602 69 281 2.0 9.0 0.00 0.00 0.00 66 1017.9
20260506233107 68 312 3.0 8.0 0.00 0.00 0.00 66 1018.0
20260506231600 69 310 3.0 7.0 0.00 0.00 0.00 64 1017.9
20260506224604 72 39 3.0 6.0 0.00 0.00 0.00 60 1018.2
20260506223126 77 325 2.0 4.0 0.00 0.00 0.00 51 1018.3
20260506221604 80 321 0.0 2.0 0.00 0.00 0.00 46 1018.4
20260506220100 81 0 0.0 8.0 0.00 0.00 0.00 45 1018.5
20260506214609 82 349 0.0 2.0 0.00 0.00 0.00 43 1018.7
20260506213057 83 0 0.0 3.0 0.00 0.00 0.00 42 1018.9
20260506211558 81 0 0.0 6.0 0.00 0.00 0.00 44 1019.2
20260506204558 81 301 0.0 2.0 0.00 0.00 0.00 43 1019.2
20260506203102 81 0 0.0 3.0 0.00 0.00 0.00 44 1019.4
20260506201556 80 316 0.0 1.0 0.00 0.00 0.00 47 1019.6
20260506200150 78 0 0.0 2.0 0.00 0.00 0.00 48 1019.9
20260506194614 76 0 0.0 3.0 0.00 0.00 0.00 50 1019.9
20260506193059 75 356 0.0 3.0 0.00 0.00 0.00 52 1020.1
20260506191601 74 0 0.0 3.0 0.00 0.00 0.00 56 1020.1
20260506190057 73 311 0.0 2.0 0.00 0.00 0.00 57 1020.3
20260506184558 72 0 0.0 2.0 0.00 0.00 0.00 58 1020.3
20260506183058 70 300 0.0 2.0 0.00 0.00 0.00 60 1020.4
20260506181557 70 351 0.0 2.0 0.00 0.00 0.00 61 1020.5
20260506180107 68 0 0.0 2.0 0.00 0.00 0.00 62 1020.4
20260506174556 66 0 0.0 1.0 0.00 0.00 0.00 66 1020.3
20260506173122 66 0 0.0 1.0 0.00 0.00 0.00 65 1020.4
20260506171602 66 328 0.0 2.0 0.00 0.00 0.00 67 1020.4
20260506170059 63 0 0.0 1.0 0.00 0.00 0.00 71 1020.4
20260506164558 61 0 0.0 1.0 0.00 0.00 0.00 75 1020.5
20260506163106 59 0 0.0 1.0 0.00 0.00 0.00 78 1020.5
20260506161559 60 0 0.0 0.0 0.00 0.00 0.00 77 1020.5
20260506160109 59 0 0.0 0.0 0.00 0.00 0.00 79 1020.5
20260506154600 59 0 0.0 0.0 0.00 0.00 0.00 81 1020.5
20260506153058 58 0 0.0 0.0 0.00 0.00 0.00 84 1020.5
20260506151600 56 0 0.0 0.0 0.00 0.00 0.00 86 1020.4
20260506150104 56 0 0.0 0.0 0.00 0.00 0.00 87 1020.3
20260506144602 55 0 0.0 1.0 0.00 0.00 0.00 88 1020.2
20260506143057 54 0 0.0 2.0 0.00 0.00 0.00 89 1020.3
20260506141559 54 296 0.0 2.0 0.00 0.00 0.00 89 1020.2
20260506140059 53 278 1.0 2.0 0.00 0.00 0.00 90 1020.1
20260506134618 53 278 0.0 2.0 0.00 0.00 0.00 90 1019.9
20260506133100 53 278 0.0 3.0 0.00 0.00 0.00 90 1019.8
20260506131611 53 322 1.0 2.0 0.00 0.00 0.00 91 1019.6
20260506130059 53 311 0.0 1.0 0.00 0.00 0.00 91 1019.5
20260506124603 53 288 0.0 1.0 0.00 0.00 0.00 91 1019.4
20260506123058 52 0 0.0 0.0 0.00 0.00 0.00 91 1019.3
20260506121609 52 0 0.0 1.0 0.00 0.00 0.00 90 1019.4
20260506114600 53 300 0.0 1.0 0.00 0.00 0.00 90 1018.9
20260506113107 53 0 0.0 2.0 0.00 0.00 0.00 90 1019.0
20260506111622 53 302 1.0 2.0 0.00 0.00 0.00 90 1019.1
20260506110101 53 306 0.0 1.0 0.00 0.00 0.00 91 1018.8
20260506104605 53 0 0.0 0.0 0.00 0.00 0.00 90 1018.7
20260506103104 53 0 0.0 0.0 0.00 0.00 0.00 89 1018.7
20260506101558 54 0 0.0 1.0 0.00 0.00 0.00 89 1018.6
20260506100103 54 0 0.0 1.0 0.00 0.00 0.00 89 1018.7
20260506094556 54 0 0.0 0.0 0.00 0.00 0.00 88 1018.6
20260506093058 55 0 0.0 0.0 0.00 0.00 0.00 87 1018.7
20260506091556 55 0 0.0 1.0 0.00 0.00 0.00 87 1018.6
20260506090100 55 0 0.0 0.0 0.00 0.00 0.00 87 1018.6
20260506084605 55 0 0.0 1.0 0.00 0.00 0.00 87 1018.6
20260506083114 55 0 0.0 1.0 0.00 0.00 0.00 87 1018.7
20260506081557 55 0 0.0 1.0 0.00 0.00 0.00 86 1018.8
20260506073056 55 295 0.0 0.0 0.00 0.00 0.00 84 1018.7
20260506071557 55 0 0.0 0.0 0.00 0.00 0.00 83 1018.6
20260506070127 55 0 0.0 1.0 0.00 0.00 0.00 83 1018.4
20260506061607 55 0 0.0 0.0 0.00 0.00 0.00 83 1018.2
20260506050109 55 278 0.0 2.0 0.00 0.00 0.00 82 1017.5
20260506044601 56 288 1.0 3.0 0.00 0.00 0.00 82 1017.5
20260506043059 56 281 1.0 2.0 0.00 0.00 0.00 81 1017.5
20260506041606 56 283 1.0 4.0 0.00 0.00 0.00 81 1017.3
20260506040100 56 283 1.0 4.0 0.00 0.00 0.00 81 1017.0
20260506034601 56 283 1.0 4.0 0.00 0.00 0.00 81 1016.9
20260506033058 56 314 1.0 6.0 0.00 0.00 0.00 81 1016.6
20260506031600 56 254 2.0 5.0 0.00 0.00 0.00 81 1016.5
20260506030058 56 266 2.0 4.0 0.00 0.00 0.00 81 1016.4
20260506024605 57 305 1.0 4.0 0.00 0.00 0.00 79 1016.1
20260506023103 59 280 3.0 5.0 0.00 0.00 0.00 77 1015.9
20260506021559 60 256 2.0 5.0 0.00 0.00 0.00 75 1015.8
20260506020110 59 257 3.0 6.0 0.00 0.00 0.00 75 1015.8
20260506014611 59 290 1.0 5.0 0.00 0.00 0.00 75 1015.8
20260506013056 59 285 1.0 4.0 0.00 0.00 0.00 74 1015.9
20260506011623 60 267 1.0 5.0 0.00 0.00 0.00 74 1015.8
20260506010057 60 270 3.0 8.0 0.00 0.00 0.00 73 1015.7
20260506004606 60 265 2.0 6.0 0.00 0.00 0.00 74 1015.7